QPF
0.02 0.02 0.02 0.01 0.01 0.00 0.00 0.01 0.01 0.01 0.01 0.01 0.01 0.00 0.00 0.00 0.00 0.00 0.00 0.00 0.00 0.00 0.00 0.00 0.00 0.00 0.00 0.00 0.00 0.01 0.01 0.01 0.01 0.01 0.01 0.01 0.01 0.01 0.01 0.01 0.01 0.01 0.01
0.05 0.03 0.04 0.03 0.02 0.01 0.00 0.01 0.01 0.01 0.02 0.02 0.01 0.01 0.01 0.01 0.00 0.00 0.00 0.00 0.00 0.00 0.00 0.00 0.00 0.00 0.00 0.01 0.01 0.01 0.01 0.01 0.01 0.01 0.01 0.01 0.01 0.00 0.00 0.01 0.01 0.01 0.01
0.07 0.05 0.04 0.04 0.03 0.02 0.02 0.02 0.02 0.02 0.02 0.02 0.02 0.01 0.01 0.01 0.00 0.00 0.00 0.00 0.00 0.00 0.00 0.00 0.00 0.01 0.01 0.01 0.01 0.02 0.02 0.01 0.01 0.01 0.01 0.01 0.01 0.01 0.01 0.01 0.01 0.01 0.01
0.08 0.06 0.07 0.07 0.06 0.05 0.05 0.04 0.03 0.03 0.03 0.03 0.03 0.03 0.01 0.01 0.01 0.00 0.00 0.00 0.00 0.00 0.00 0.00 0.00 0.01 0.01 0.01 0.01 0.02 0.02 0.01 0.01 0.01 0.01 0.01 0.01 0.01 0.01 0.01 0.01 0.01 0.01
0.08 0.07 0.07 0.07 0.09 0.10 0.09 0.08 0.05 0.04 0.04 0.04 0.04 0.04 0.03 0.02 0.02 0.01 0.01 0.00 0.00 0.00 0.00 0.00 0.00 0.00 0.00 0.01 0.01 0.02 0.02 0.01 0.01 0.01 0.01 0.01 0.01 0.01 0.01 0.01 0.01 0.01 0.01
0.10 0.09 0.09 0.10 0.09 0.09 0.10 0.09 0.07 0.05 0.04 0.04 0.04 0.04 0.03 0.03 0.02 0.01 0.01 0.01 0.01 0.01 0.01 0.01 0.01 0.01 0.00 0.00 0.01 0.01 0.01 0.01 0.01 0.01 0.01 0.01 0.02 0.02 0.02 0.02 0.02 0.02 0.02
0.14 0.15 0.13 0.14 0.15 0.13 0.10 0.10 0.10 0.08 0.05 0.05 0.04 0.03 0.02 0.02 0.01 0.01 0.01 0.01 0.01 0.01 0.01 0.01 0.01 0.01 0.00 0.00 0.00 0.00 0.00 0.01 0.01 0.01 0.01 0.01 0.02 0.03 0.03 0.03 0.03 0.02 0.02
0.10 0.14 0.18 0.18 0.18 0.18 0.16 0.13 0.11 0.10 0.08 0.07 0.05 0.04 0.03 0.02 0.01 0.01 0.01 0.01 0.01 0.01 0.01 0.01 0.01 0.01 0.00 0.00 0.00 0.00 0.00 0.00 0.01 0.01 0.01 0.02 0.02 0.03 0.04 0.04 0.04 0.03 0.03
0.11 0.10 0.12 0.15 0.18 0.19 0.16 0.12 0.11 0.11 0.11 0.11 0.10 0.09 0.07 0.05 0.03 0.02 0.01 0.01 0.01 0.02 0.02 0.02 0.01 0.01 0.00 0.00 0.00 0.00 0.00 0.00 0.01 0.01 0.02 0.02 0.02 0.03 0.04 0.04 0.04 0.04 0.04
0.10 0.11 0.11 0.12 0.15 0.16 0.17 0.14 0.10 0.10 0.11 0.11 0.11 0.11 0.09 0.07 0.05 0.04 0.04 0.03 0.03 0.03 0.03 0.02 0.01 0.01 0.01 0.00 0.00 0.00 0.00 0.00 0.01 0.01 0.02 0.03 0.03 0.04 0.05 0.06 0.06 0.05 0.05
0.09 0.08 0.09 0.13 0.16 0.18 0.19 0.19 0.15 0.11 0.09 0.09 0.11 0.11 0.10 0.08 0.07 0.06 0.06 0.06 0.05 0.04 0.02 0.02 0.01 0.01 0.01 0.00 0.00 0.00 0.00 0.00 0.01 0.01 0.02 0.04 0.05 0.06 0.06 0.06 0.06 0.06 0.06
0.07 0.07 0.06 0.09 0.13 0.13 0.16 0.17 0.16 0.14 0.10 0.08 0.09 0.08 0.07 0.06 0.05 0.06 0.06 0.05 0.04 0.03 0.02 0.02 0.01 0.01 0.01 0.00 0.00 0.00 0.00 0.00 0.00 0.01 0.02 0.05 0.05 0.05 0.05 0.06 0.07 0.07 0.07
0.07 0.06 0.08 0.10 0.14 0.13 0.12 0.14 0.15 0.14 0.12 0.09 0.08 0.07 0.06 0.05 0.05 0.05 0.06 0.05 0.04 0.03 0.03 0.03 0.02 0.01 0.01 0.01 0.00 0.00 0.00 0.00 0.00 0.01 0.02 0.06 0.07 0.06 0.05 0.05 0.06 0.07 0.08
0.08 0.07 0.10 0.14 0.17 0.19 0.15 0.15 0.15 0.13 0.11 0.10 0.08 0.07 0.06 0.05 0.05 0.04 0.04 0.04 0.04 0.04 0.03 0.03 0.02 0.02 0.01 0.01 0.01 0.01 0.01 0.01 0.01 0.01 0.02 0.05 0.06 0.05 0.04 0.05 0.06 0.07 0.09
0.06 0.07 0.09 0.10 0.12 0.14 0.14 0.14 0.14 0.11 0.09 0.08 0.07 0.07 0.08 0.07 0.07 0.07 0.06 0.06 0.06 0.06 0.05 0.03 0.02 0.02 0.02 0.02 0.02 0.02 0.01 0.01 0.01 0.01 0.02 0.03 0.03 0.03 0.04 0.04 0.05 0.08 0.10
0.05 0.05 0.06 0.06 0.08 0.09 0.11 0.11 0.10 0.09 0.07 0.06 0.06 0.06 0.06 0.06 0.06 0.07 0.07 0.07 0.07 0.07 0.06 0.04 0.03 0.02 0.02 0.01 0.02 0.02 0.02 0.02 0.02 0.01 0.02 0.02 0.02 0.03 0.03 0.03 0.04 0.07 0.10
0.04 0.04 0.07 0.07 0.07 0.07 0.08 0.09 0.07 0.07 0.07 0.06 0.05 0.05 0.05 0.05 0.06 0.06 0.05 0.06 0.06 0.06 0.05 0.03 0.03 0.03 0.03 0.02 0.02 0.02 0.02 0.02 0.02 0.02 0.02 0.02 0.02 0.02 0.02 0.02 0.04 0.06 0.08
0.05 0.05 0.06 0.08 0.08 0.07 0.06 0.06 0.05 0.05 0.05 0.05 0.05 0.05 0.05 0.05 0.05 0.06 0.06 0.05 0.05 0.05 0.05 0.04 0.03 0.03 0.03 0.03 0.03 0.03 0.03 0.03 0.03 0.04 0.04 0.03 0.03 0.03 0.03 0.03 0.04 0.05 0.06
0.04 0.05 0.04 0.05 0.05 0.05 0.06 0.05 0.04 0.04 0.04 0.04 0.04 0.03 0.03 0.04 0.04 0.04 0.05 0.05 0.04 0.05 0.05 0.04 0.03 0.03 0.03 0.03 0.03 0.04 0.04 0.04 0.04 0.04 0.04 0.03 0.03 0.03 0.03 0.04 0.04 0.05 0.06
0.05 0.04 0.04 0.04 0.04 0.05 0.06 0.05 0.04 0.04 0.04 0.03 0.03 0.03 0.03 0.03 0.02 0.03 0.03 0.04 0.05 0.06 0.06 0.05 0.05 0.03 0.03 0.03 0.04 0.04 0.04 0.04 0.03 0.02 0.02 0.02 0.03 0.03 0.04 0.05 0.06 0.06 0.06
0.04 0.04 0.04 0.03 0.04 0.04 0.04 0.04 0.03 0.03 0.03 0.03 0.02 0.02 0.02 0.03 0.03 0.03 0.03 0.04 0.05 0.05 0.05 0.05 0.05 0.05 0.04 0.03 0.03 0.04 0.04 0.04 0.04 0.03 0.02 0.02 0.02 0.02 0.04 0.07 0.08 0.08 0.08
0.03 0.03 0.03 0.03 0.03 0.03 0.03 0.03 0.02 0.02 0.03 0.03 0.02 0.02 0.03 0.04 0.05 0.06 0.06 0.06 0.06 0.06 0.06 0.05 0.05 0.04 0.04 0.03 0.04 0.04 0.04 0.05 0.05 0.03 0.02 0.02 0.02 0.02 0.03 0.05 0.08 0.09 0.10
0.02 0.02 0.02 0.02 0.02 0.02 0.02 0.03 0.03 0.02 0.02 0.02 0.02 0.03 0.03 0.04 0.06 0.06 0.06 0.07 0.07 0.08 0.07 0.06 0.05 0.04 0.04 0.03 0.04 0.05 0.05 0.04 0.03 0.03 0.03 0.04 0.03 0.03 0.03 0.05 0.07 0.08 0.08
0.02 0.02 0.02 0.03 0.03 0.03 0.02 0.02 0.04 0.04 0.04 0.04 0.03 0.04 0.05 0.05 0.06 0.07 0.07 0.06 0.06 0.06 0.06 0.05 0.05 0.05 0.04 0.04 0.04 0.05 0.06 0.06 0.05 0.04 0.04 0.05 0.04 0.03 0.04 0.05 0.07 0.09 0.10
0.02 0.02 0.02 0.02 0.02 0.02 0.03 0.04 0.04 0.04 0.05 0.06 0.05 0.06 0.06 0.05 0.06 0.05 0.04 0.04 0.04 0.04 0.05 0.05 0.06 0.06 0.06 0.05 0.05 0.05 0.06 0.08 0.08 0.06 0.03 0.03 0.03 0.03 0.03 0.05 0.07 0.09 0.09
0.02 0.02 0.02 0.01 0.01 0.02 0.03 0.02 0.03 0.04 0.06 0.07 0.07 0.07 0.07 0.06 0.05 0.04 0.03 0.04 0.05 0.03 0.03 0.03 0.03 0.04 0.04 0.04 0.04 0.04 0.05 0.07 0.08 0.07 0.05 0.04 0.04 0.05 0.06 0.06 0.07 0.08 0.07
MSLP
1014.62 1014.71 1014.79 1014.88 1015.01 1015.20 1015.46 1015.78 1016.12 1016.46 1016.75 1016.96 1017.08 1017.12 1017.10 1017.05 1017.00 1016.98 1017.00 1017.06 1017.14 1017.22 1017.31 1017.38 1017.44 1017.49 1017.53 1017.58 1017.63 1017.68 1017.72 1017.74 1017.75 1017.74 1017.71 1017.69 1017.68 1017.68 1017.70 1017.71 1017.72 1017.69 1017.61
1014.04 1014.10 1014.15 1014.22 1014.34 1014.54 1014.83 1015.18 1015.57 1015.96 1016.31 1016.58 1016.76 1016.84 1016.84 1016.80 1016.74 1016.69 1016.68 1016.70 1016.75 1016.83 1016.92 1017.01 1017.10 1017.18 1017.24 1017.31 1017.36 1017.40 1017.43 1017.44 1017.44 1017.42 1017.40 1017.38 1017.38 1017.39 1017.41 1017.44 1017.44 1017.42 1017.35
1013.38 1013.41 1013.44 1013.50 1013.63 1013.85 1014.15 1014.54 1014.97 1015.41 1015.81 1016.13 1016.36 1016.49 1016.53 1016.50 1016.44 1016.38 1016.33 1016.32 1016.35 1016.41 1016.49 1016.59 1016.70 1016.80 1016.90 1016.98 1017.04 1017.09 1017.11 1017.12 1017.11 1017.09 1017.06 1017.05 1017.05 1017.06 1017.09 1017.11 1017.12 1017.10 1017.05
1012.68 1012.69 1012.72 1012.79 1012.94 1013.17 1013.50 1013.90 1014.36 1014.82 1015.26 1015.63 1015.91 1016.09 1016.17 1016.17 1016.12 1016.06 1015.99 1015.96 1015.96 1016.00 1016.07 1016.17 1016.28 1016.40 1016.52 1016.62 1016.70 1016.75 1016.77 1016.78 1016.76 1016.73 1016.71 1016.69 1016.69 1016.70 1016.72 1016.74 1016.75 1016.73 1016.69
1011.97 1011.98 1012.02 1012.11 1012.28 1012.54 1012.88 1013.29 1013.76 1014.24 1014.70 1015.10 1015.43 1015.65 1015.78 1015.82 1015.81 1015.75 1015.69 1015.64 1015.61 1015.63 1015.69 1015.78 1015.89 1016.02 1016.14 1016.26 1016.35 1016.41 1016.43 1016.43 1016.41 1016.38 1016.34 1016.31 1016.30 1016.29 1016.29 1016.30 1016.30 1016.28 1016.25
1011.27 1011.28 1011.35 1011.48 1011.68 1011.95 1012.30 1012.72 1013.18 1013.66 1014.12 1014.55 1014.90 1015.18 1015.36 1015.46 1015.49 1015.46 1015.42 1015.37 1015.34 1015.34 1015.38 1015.45 1015.56 1015.68 1015.81 1015.93 1016.02 1016.09 1016.12 1016.11 1016.08 1016.03 1015.97 1015.92 1015.87 1015.84 1015.81 1015.79 1015.76 1015.74 1015.70
1010.57 1010.60 1010.70 1010.86 1011.09 1011.39 1011.74 1012.15 1012.59 1013.06 1013.51 1013.95 1014.33 1014.65 1014.90 1015.06 1015.15 1015.18 1015.17 1015.14 1015.12 1015.11 1015.14 1015.20 1015.30 1015.41 1015.54 1015.66 1015.75 1015.82 1015.84 1015.82 1015.78 1015.70 1015.62 1015.53 1015.44 1015.36 1015.29 1015.22 1015.16 1015.10 1015.06
1009.85 1009.90 1010.02 1010.22 1010.48 1010.79 1011.15 1011.54 1011.96 1012.40 1012.85 1013.28 1013.69 1014.06 1014.36 1014.60 1014.77 1014.87 1014.91 1014.92 1014.92 1014.92 1014.95 1015.01 1015.10 1015.21 1015.34 1015.46 1015.55 1015.61 1015.63 1015.60 1015.52 1015.42 1015.29 1015.15 1015.01 1014.88 1014.75 1014.63 1014.52 1014.42 1014.34
1009.12 1009.16 1009.30 1009.52 1009.80 1010.12 1010.47 1010.85 1011.24 1011.66 1012.09 1012.53 1012.96 1013.37 1013.74 1014.05 1014.30 1014.47 1014.58 1014.65 1014.69 1014.72 1014.76 1014.83 1014.93 1015.06 1015.19 1015.32 1015.42 1015.48 1015.49 1015.44 1015.34 1015.20 1015.03 1014.84 1014.64 1014.44 1014.25 1014.06 1013.90 1013.74 1013.61
1008.36 1008.38 1008.52 1008.74 1009.03 1009.35 1009.70 1010.06 1010.43 1010.82 1011.24 1011.68 1012.13 1012.57 1013.00 1013.38 1013.70 1013.95 1014.14 1014.27 1014.37 1014.45 1014.54 1014.64 1014.77 1014.93 1015.08 1015.23 1015.35 1015.42 1015.42 1015.37 1015.24 1015.06 1014.85 1014.60 1014.35 1014.09 1013.83 1013.58 1013.35 1013.14 1012.95
1007.61 1007.60 1007.72 1007.93 1008.20 1008.51 1008.85 1009.19 1009.55 1009.93 1010.34 1010.77 1011.23 1011.71 1012.17 1012.61 1012.99 1013.32 1013.58 1013.78 1013.94 1014.09 1014.24 1014.40 1014.59 1014.79 1015.00 1015.19 1015.33 1015.42 1015.43 1015.36 1015.22 1015.01 1014.75 1014.46 1014.16 1013.85 1013.54 1013.24 1012.95 1012.68 1012.42
1006.94 1006.88 1006.96 1007.14 1007.39 1007.69 1008.01 1008.34 1008.68 1009.05 1009.45 1009.88 1010.35 1010.83 1011.32 1011.80 1012.23 1012.61 1012.93 1013.20 1013.44 1013.67 1013.89 1014.14 1014.40 1014.67 1014.94 1015.18 1015.36 1015.48 1015.50 1015.43 1015.27 1015.03 1014.74 1014.42 1014.07 1013.72 1013.38 1013.04 1012.71 1012.38 1012.07
1006.44 1006.32 1006.34 1006.48 1006.70 1006.97 1007.28 1007.60 1007.93 1008.29 1008.68 1009.11 1009.57 1010.06 1010.56 1011.05 1011.50 1011.92 1012.29 1012.62 1012.94 1013.24 1013.55 1013.88 1014.23 1014.58 1014.92 1015.22 1015.44 1015.58 1015.61 1015.54 1015.36 1015.10 1014.79 1014.43 1014.07 1013.70 1013.33 1012.97 1012.61 1012.26 1011.90
1006.18 1005.99 1005.96 1006.06 1006.24 1006.49 1006.78 1007.09 1007.42 1007.78 1008.16 1008.58 1009.03 1009.51 1010.00 1010.48 1010.94 1011.38 1011.78 1012.16 1012.53 1012.91 1013.30 1013.71 1014.14 1014.57 1014.97 1015.32 1015.57 1015.72 1015.75 1015.66 1015.47 1015.19 1014.85 1014.48 1014.10 1013.72 1013.35 1012.98 1012.62 1012.24 1011.85
1006.23 1005.99 1005.90 1005.96 1006.11 1006.34 1006.61 1006.92 1007.26 1007.61 1007.99 1008.40 1008.84 1009.30 1009.76 1010.22 1010.67 1011.10 1011.52 1011.93 1012.34 1012.77 1013.23 1013.71 1014.20 1014.69 1015.13 1015.50 1015.76 1015.90 1015.91 1015.80 1015.57 1015.25 1014.89 1014.50 1014.11 1013.73 1013.36 1013.01 1012.64 1012.26 1011.85
1006.61 1006.33 1006.21 1006.22 1006.36 1006.57 1006.84 1007.15 1007.49 1007.85 1008.23 1008.64 1009.06 1009.49 1009.92 1010.35 1010.78 1011.19 1011.60 1012.01 1012.45 1012.91 1013.40 1013.92 1014.45 1014.95 1015.40 1015.76 1016.00 1016.11 1016.08 1015.91 1015.63 1015.27 1014.87 1014.45 1014.05 1013.66 1013.30 1012.96 1012.60 1012.22 1011.78
1007.30 1007.00 1006.86 1006.86 1006.98 1007.19 1007.46 1007.78 1008.12 1008.50 1008.88 1009.28 1009.69 1010.10 1010.50 1010.90 1011.29 1011.67 1012.06 1012.46 1012.89 1013.35 1013.85 1014.37 1014.89 1015.37 1015.79 1016.10 1016.29 1016.33 1016.22 1015.98 1015.63 1015.22 1014.77 1014.31 1013.88 1013.49 1013.12 1012.77 1012.41 1012.02 1011.57
1008.23 1007.93 1007.79 1007.79 1007.90 1008.11 1008.39 1008.71 1009.07 1009.46 1009.85 1010.25 1010.65 1011.04 1011.42 1011.78 1012.13 1012.48 1012.83 1013.20 1013.60 1014.04 1014.51 1014.99 1015.46 1015.90 1016.25 1016.49 1016.59 1016.54 1016.34 1016.01 1015.58 1015.09 1014.58 1014.08 1013.62 1013.19 1012.80 1012.43 1012.05 1011.63 1011.15
1009.30 1009.03 1008.90 1008.90 1009.02 1009.23 1009.51 1009.85 1010.22 1010.61 1011.01 1011.41 1011.80 1012.18 1012.53 1012.87 1013.18 1013.49 1013.80 1014.13 1014.48 1014.87 1015.28 1015.70 1016.10 1016.45 1016.71 1016.85 1016.85 1016.70 1016.40 1015.98 1015.47 1014.91 1014.34 1013.79 1013.27 1012.80 1012.36 1011.95 1011.52 1011.06 1010.54
1010.42 1010.18 1010.08 1010.09 1010.21 1010.42 1010.70 1011.03 1011.40 1011.79 1012.20 1012.60 1012.98 1013.35 1013.69 1014.00 1014.28 1014.55 1014.82 1015.09 1015.39 1015.71 1016.04 1016.38 1016.69 1016.94 1017.10 1017.14 1017.03 1016.78 1016.40 1015.90 1015.32 1014.70 1014.07 1013.46 1012.89 1012.36 1011.87 1011.39 1010.90 1010.37 1009.78
1011.51 1011.32 1011.23 1011.26 1011.38 1011.58 1011.84 1012.16 1012.51 1012.89 1013.28 1013.68 1014.05 1014.41 1014.73 1015.01 1015.27 1015.50 1015.72 1015.94 1016.17 1016.42 1016.67 1016.92 1017.14 1017.29 1017.35 1017.29 1017.10 1016.78 1016.33 1015.77 1015.14 1014.48 1013.81 1013.16 1012.54 1011.95 1011.38 1010.83 1010.26 1009.65 1008.99
1012.51 1012.36 1012.30 1012.33 1012.43 1012.61 1012.84 1013.13 1013.45 1013.80 1014.18 1014.55 1014.91 1015.24 1015.54 1015.80 1016.03 1016.22 1016.39 1016.56 1016.73 1016.90 1017.08 1017.25 1017.37 1017.44 1017.42 1017.29 1017.03 1016.66 1016.17 1015.59 1014.95 1014.27 1013.58 1012.91 1012.26 1011.62 1010.99 1010.36 1009.70 1009.01 1008.27
1013.39 1013.28 1013.24 1013.26 1013.34 1013.48 1013.67 1013.90 1014.18 1014.50 1014.83 1015.17 1015.51 1015.82 1016.09 1016.32 1016.52 1016.67 1016.80 1016.92 1017.03 1017.14 1017.25 1017.34 1017.39 1017.39 1017.31 1017.13 1016.84 1016.44 1015.95 1015.37 1014.74 1014.08 1013.41 1012.74 1012.07 1011.41 1010.73 1010.04 1009.31 1008.55 1007.75
1014.13 1014.05 1014.02 1014.03 1014.08 1014.18 1014.32 1014.50 1014.72 1014.98 1015.27 1015.58 1015.87 1016.15 1016.39 1016.59 1016.75 1016.86 1016.95 1017.02 1017.08 1017.14 1017.19 1017.23 1017.23 1017.18 1017.06 1016.85 1016.54 1016.15 1015.67 1015.12 1014.53 1013.91 1013.28 1012.64 1011.99 1011.33 1010.64 1009.91 1009.14 1008.33 1007.49
1014.72 1014.68 1014.66 1014.66 1014.68 1014.73 1014.82 1014.94 1015.11 1015.32 1015.56 1015.82 1016.08 1016.31 1016.52 1016.68 1016.81 1016.89 1016.94 1016.97 1016.99 1017.00 1017.01 1017.00 1016.97 1016.88 1016.73 1016.51 1016.20 1015.82 1015.37 1014.86 1014.32 1013.75 1013.18 1012.59 1011.99 1011.36 1010.69 1009.97 1009.19 1008.37 1007.51
1015.15 1015.15 1015.14 1015.13 1015.13 1015.15 1015.20 1015.28 1015.41 1015.57 1015.77 1015.99 1016.20 1016.40 1016.57 1016.70 1016.79 1016.84 1016.85 1016.85 1016.84 1016.82 1016.80 1016.76 1016.70 1016.59 1016.42 1016.18 1015.87 1015.50 1015.07 1014.61 1014.11 1013.60 1013.09 1012.57 1012.03 1011.45 1010.83 1010.15 1009.41 1008.61 1007.78
Thickness
5693 5693 5693 5693 5693 5693 5692 5691 5690 5689 5688 5688 5687 5687 5686 5686 5685 5684 5684 5683 5682 5682 5681 5680 5678 5677 5675 5674 5672 5671 5670 5669 5668 5667 5665 5664 5663 5661 5660 5659 5658 5657 5655
5687 5687 5688 5688 5688 5687 5687 5686 5685 5684 5683 5683 5683 5682 5682 5681 5681 5680 5679 5678 5677 5677 5676 5675 5673 5672 5671 5669 5668 5666 5665 5664 5663 5662 5660 5659 5658 5657 5655 5654 5653 5651 5650
5681 5681 5682 5682 5682 5682 5681 5680 5679 5679 5678 5677 5677 5677 5677 5676 5676 5676 5675 5674 5672 5671 5670 5669 5668 5667 5665 5664 5663 5662 5660 5659 5658 5657 5655 5654 5653 5651 5650 5649 5647 5646 5644
5674 5675 5676 5677 5677 5676 5676 5675 5673 5672 5672 5671 5671 5671 5671 5671 5671 5670 5669 5668 5667 5665 5664 5663 5662 5661 5660 5658 5657 5656 5655 5654 5653 5651 5650 5649 5648 5646 5645 5644 5642 5641 5639
5667 5668 5669 5670 5670 5670 5670 5669 5668 5667 5665 5665 5665 5665 5665 5665 5665 5664 5663 5662 5661 5660 5658 5657 5656 5655 5653 5652 5651 5651 5650 5648 5647 5646 5645 5644 5643 5641 5640 5638 5637 5636 5635
5659 5660 5662 5663 5663 5663 5663 5663 5662 5661 5660 5659 5658 5658 5658 5658 5658 5658 5657 5656 5655 5653 5652 5650 5649 5648 5647 5646 5645 5644 5643 5642 5641 5640 5639 5638 5637 5636 5634 5633 5632 5631 5630
5650 5652 5654 5655 5656 5656 5657 5657 5655 5653 5652 5651 5648 5647 5649 5650 5651 5651 5650 5649 5648 5647 5645 5644 5643 5641 5639 5639 5638 5636 5636 5635 5635 5634 5633 5632 5631 5630 5629 5628 5627 5626 5624
5640 5643 5645 5646 5648 5648 5648 5648 5646 5645 5644 5643 5641 5637 5636 5638 5642 5644 5642 5642 5641 5639 5637 5636 5635 5634 5633 5632 5631 5630 5629 5628 5628 5627 5627 5626 5625 5624 5623 5622 5621 5620 5618
5629 5632 5635 5637 5638 5638 5639 5639 5638 5636 5636 5634 5634 5631 5629 5630 5630 5633 5634 5633 5632 5631 5630 5628 5627 5626 5625 5625 5624 5623 5622 5622 5621 5621 5620 5620 5619 5618 5617 5616 5615 5613 5612
5617 5620 5623 5625 5627 5628 5629 5629 5629 5629 5628 5626 5624 5624 5624 5624 5620 5621 5623 5624 5623 5622 5621 5620 5619 5618 5618 5617 5616 5616 5615 5614 5614 5613 5613 5612 5612 5611 5610 5609 5607 5606 5605
5603 5607 5611 5613 5615 5616 5617 5618 5618 5619 5619 5618 5616 5615 5613 5613 5612 5611 5611 5612 5612 5613 5613 5612 5611 5611 5610 5609 5609 5608 5607 5606 5605 5605 5605 5605 5605 5604 5602 5601 5600 5598 5597
5592 5595 5599 5601 5603 5604 5605 5606 5606 5607 5608 5608 5607 5606 5605 5603 5603 5601 5601 5602 5602 5604 5604 5604 5603 5602 5602 5601 5600 5600 5599 5598 5597 5597 5597 5597 5597 5596 5594 5592 5590 5589 5588
5580 5584 5587 5590 5591 5593 5594 5594 5595 5596 5596 5596 5596 5595 5594 5594 5594 5593 5591 5591 5591 5594 5594 5595 5594 5594 5593 5592 5591 5591 5590 5589 5588 5588 5588 5588 5587 5586 5584 5582 5580 5579 5577
5570 5573 5575 5579 5581 5582 5583 5583 5584 5585 5585 5584 5584 5583 5582 5581 5582 5581 5581 5580 5580 5582 5583 5585 5585 5585 5584 5583 5582 5581 5581 5580 5579 5578 5578 5578 5577 5575 5574 5572 5570 5568 5567
5561 5563 5566 5568 5570 5572 5572 5573 5572 5572 5572 5572 5571 5571 5570 5570 5569 5570 5570 5570 5569 5570 5574 5575 5574 5575 5573 5572 5572 5571 5571 5570 5569 5568 5568 5567 5566 5564 5562 5561 5559 5557 5556
5551 5553 5555 5557 5559 5560 5561 5561 5561 5560 5560 5560 5560 5559 5559 5559 5558 5558 5558 5559 5559 5559 5561 5565 5563 5562 5562 5561 5561 5560 5559 5559 5558 5557 5557 5555 5554 5552 5551 5549 5548 5547 5546
5542 5544 5545 5547 5548 5548 5549 5549 5549 5548 5548 5548 5548 5548 5548 5548 5547 5547 5547 5547 5547 5546 5548 5552 5551 5551 5550 5549 5549 5548 5547 5547 5546 5546 5545 5544 5543 5541 5539 5538 5536 5536 5535
5534 5535 5536 5537 5537 5537 5538 5538 5538 5537 5537 5537 5537 5537 5537 5536 5536 5536 5536 5535 5535 5535 5536 5539 5539 5538 5537 5537 5536 5536 5535 5535 5534 5533 5532 5532 5531 5529 5527 5526 5524 5524 5523
5526 5527 5527 5527 5528 5528 5528 5528 5527 5527 5527 5527 5526 5526 5526 5525 5525 5525 5525 5524 5524 5524 5524 5525 5526 5526 5525 5524 5523 5522 5522 5521 5521 5520 5519 5519 5518 5517 5515 5514 5513 5513 5512
5519 5519 5519 5519 5519 5519 5518 5518 5517 5516 5516 5516 5516 5516 5516 5515 5515 5514 5514 5513 5513 5512 5512 5512 5513 5513 5512 5510 5508 5509 5510 5508 5508 5507 5506 5505 5504 5504 5503 5502 5502 5501 5501
5512 5512 5512 5511 5511 5510 5510 5509 5508 5507 5505 5505 5505 5505 5504 5504 5503 5503 5503 5502 5501 5500 5500 5500 5500 5500 5499 5496 5495 5495 5494 5495 5495 5492 5492 5492 5490 5491 5490 5490 5490 5490 5490
5505 5504 5504 5503 5502 5502 5501 5500 5499 5496 5495 5494 5493 5493 5492 5491 5491 5491 5491 5491 5490 5489 5488 5487 5487 5487 5487 5484 5483 5481 5479 5478 5481 5480 5476 5478 5477 5477 5478 5478 5479 5479 5480
5498 5496 5495 5494 5494 5493 5493 5492 5490 5488 5486 5484 5482 5481 5480 5480 5479 5479 5479 5479 5478 5476 5476 5474 5473 5473 5472 5471 5469 5467 5465 5463 5464 5464 5461 5465 5464 5464 5465 5466 5467 5468 5469
5491 5489 5487 5486 5485 5485 5485 5483 5482 5479 5476 5474 5472 5471 5469 5468 5468 5468 5468 5466 5464 5462 5461 5460 5459 5459 5457 5455 5453 5452 5450 5450 5450 5449 5447 5449 5451 5451 5453 5454 5455 5457 5459
5483 5481 5479 5477 5476 5475 5475 5474 5473 5469 5466 5464 5462 5460 5459 5458 5458 5458 5457 5454 5452 5449 5448 5447 5446 5444 5442 5441 5439 5437 5436 5435 5437 5437 5434 5434 5437 5437 5439 5442 5445 5446 5448
5475 5473 5471 5469 5467 5465 5465 5464 5463 5459 5456 5454 5452 5450 5449 5448 5448 5447 5445 5442 5440 5438 5436 5434 5433 5430 5428 5427 5425 5422 5421 5421 5420 5422 5422 5420 5421 5421 5426 5430 5432 5433 5435